TimeCDT,TemperatureF,Dew PointF,Humidity,Sea Level PressureIn,VisibilityMPH,Wind Direction,Wind SpeedMPH,Gust SpeedMPH,PrecipitationIn,Events,Conditions,WindDirDegrees,DateUTC
12:15 AM,78.8,62.6,57,29.76,10.0,South,13.8,20.7,N/A,,Clear,180,2013-06-12 05:15:00
12:35 AM,78.8,62.6,57,29.76,10.0,South,13.8,-,N/A,,Clear,180,2013-06-12 05:35:00
12:55 AM,78.8,62.6,57,29.75,10.0,South,13.8,19.6,N/A,,Scattered Clouds,180,2013-06-12 05:55:00
1:15 AM,78.8,64.4,61,29.74,10.0,South,12.7,19.6,N/A,,Scattered Clouds,180,2013-06-12 06:15:00
1:35 AM,78.8,64.4,61,29.74,10.0,South,12.7,-,N/A,,Clear,170,2013-06-12 06:35:00
1:55 AM,77.0,64.4,65,29.75,10.0,South,8.1,-,N/A,,Scattered Clouds,180,2013-06-12 06:55:00
2:15 AM,77.0,64.4,65,29.74,10.0,South,10.4,-,N/A,,Scattered Clouds,180,2013-06-12 07:15:00
2:35 AM,77.0,64.4,65,29.73,10.0,South,12.7,19.6,N/A,,Scattered Clouds,190,2013-06-12 07:35:00
2:55 AM,77.0,64.4,65,29.71,10.0,South,16.1,20.7,N/A,,Scattered Clouds,190,2013-06-12 07:55:00
3:15 AM,77.0,66.2,69,29.71,10.0,South,16.1,21.9,N/A,,Clear,190,2013-06-12 08:15:00
3:35 AM,77.0,66.2,69,29.72,10.0,SSW,13.8,20.7,N/A,,Clear,210,2013-06-12 08:35:00
3:55 AM,75.2,66.2,73,29.72,10.0,South,9.2,-,N/A,,Scattered Clouds,190,2013-06-12 08:55:00
4:15 AM,75.2,66.2,73,29.74,10.0,SW,6.9,-,N/A,,Scattered Clouds,220,2013-06-12 09:15:00
4:35 AM,75.2,66.2,73,29.79,10.0,NW,4.6,-,N/A,,Scattered Clouds,320,2013-06-12 09:35:00
4:55 AM,75.2,66.2,73,29.80,10.0,Calm,Calm,-,N/A,,Scattered Clouds,0,2013-06-12 09:55:00
5:15 AM,73.4,66.2,78,29.77,10.0,SE,6.9,-,N/A,,Scattered Clouds,130,2013-06-12 10:15:00
5:35 AM,75.2,66.2,73,29.75,10.0,SSE,8.1,-,N/A,,Scattered Clouds,150,2013-06-12 10:35:00
5:55 AM,73.4,66.2,78,29.74,10.0,SE,6.9,-,N/A,,Scattered Clouds,130,2013-06-12 10:55:00
6:15 AM,73.4,66.2,78,29.73,10.0,SSE,9.2,-,N/A,,Scattered Clouds,150,2013-06-12 11:15:00
6:35 AM,73.4,66.2,78,29.73,10.0,SE,6.9,-,N/A,,Clear,130,2013-06-12 11:35:00
6:55 AM,73.4,66.2,78,29.73,10.0,SE,6.9,-,N/A,,Clear,140,2013-06-12 11:55:00
7:15 AM,73.4,66.2,78,29.74,10.0,SE,6.9,-,N/A,,Clear,130,2013-06-12 12:15:00
7:35 AM,75.2,66.2,73,29.73,10.0,SSE,8.1,-,N/A,,Clear,160,2013-06-12 12:35:00
7:55 AM,77.0,68.0,74,29.74,10.0,SSE,8.1,-,N/A,,Clear,160,2013-06-12 12:55:00
8:15 AM,78.8,68.0,69,29.74,10.0,SSE,9.2,-,N/A,,Clear,160,2013-06-12 13:15:00
8:35 AM,78.8,68.0,69,29.74,10.0,South,11.5,-,N/A,,Clear,170,2013-06-12 13:35:00
8:55 AM,80.6,68.0,65,29.73,10.0,South,12.7,-,N/A,,Clear,180,2013-06-12 13:55:00
9:15 AM,80.6,69.8,70,29.73,10.0,South,12.7,-,N/A,,Clear,190,2013-06-12 14:15:00
9:35 AM,80.6,68.0,65,29.73,10.0,SSW,12.7,-,N/A,,Clear,200,2013-06-12 14:35:00
9:55 AM,82.4,68.0,62,29.74,10.0,SSW,11.5,-,N/A,,Clear,210,2013-06-12 14:55:00
10:15 AM,82.4,68.0,62,29.74,10.0,SW,10.4,-,N/A,,Clear,230,2013-06-12 15:15:00
10:35 AM,82.4,68.0,62,29.74,10.0,WSW,11.5,-,N/A,,Clear,240,2013-06-12 15:35:00
10:55 AM,84.2,69.8,62,29.74,10.0,WSW,10.4,-,N/A,,Clear,250,2013-06-12 15:55:00
11:15 AM,84.2,69.8,62,29.75,10.0,WSW,8.1,-,N/A,,Scattered Clouds,240,2013-06-12 16:15:00
11:35 AM,84.2,69.8,62,29.76,10.0,West,8.1,17.3,N/A,,Scattered Clouds,270,2013-06-12 16:35:00
11:55 AM,84.2,69.8,62,29.75,10.0,SW,6.9,-,N/A,,Scattered Clouds,230,2013-06-12 16:55:00
12:15 PM,86.0,69.8,58,29.76,10.0,WSW,8.1,-,N/A,,Clear,250,2013-06-12 17:15:00
12:35 PM,87.8,69.8,55,29.76,10.0,West,10.4,-,N/A,,Clear,270,2013-06-12 17:35:00
12:55 PM,87.8,69.8,55,29.76,10.0,NW,6.9,-,N/A,,Clear,320,2013-06-12 17:55:00
1:15 PM,89.6,68.0,49,29.77,10.0,NW,12.7,19.6,N/A,,Clear,310,2013-06-12 18:15:00
1:35 PM,89.6,66.2,46,29.78,10.0,NW,12.7,18.4,N/A,,Clear,320,2013-06-12 18:35:00
1:55 PM,89.6,66.2,46,29.79,10.0,NW,12.7,18.4,N/A,,Clear,310,2013-06-12 18:55:00
2:15 PM,89.6,66.2,46,29.79,10.0,NW,15.0,21.9,N/A,,Clear,310,2013-06-12 19:15:00
2:35 PM,89.6,68.0,49,29.79,10.0,NNW,12.7,19.6,N/A,,Clear,340,2013-06-12 19:35:00
2:55 PM,89.6,69.8,52,29.79,10.0,NNW,9.2,20.7,N/A,,Clear,330,2013-06-12 19:55:00
3:15 PM,91.4,66.2,43,29.79,10.0,NNW,17.3,20.7,N/A,,Clear,340,2013-06-12 20:15:00
3:35 PM,91.4,68.0,46,29.80,10.0,North,19.6,24.2,N/A,,Clear,350,2013-06-12 20:35:00
3:55 PM,89.6,64.4,43,29.81,10.0,NNW,17.3,21.9,N/A,,Clear,330,2013-06-12 20:55:00
4:15 PM,87.8,64.4,46,29.82,10.0,NNW,12.7,21.9,N/A,,Clear,330,2013-06-12 21:15:00
4:35 PM,87.8,64.4,46,29.82,10.0,NNW,15.0,20.7,N/A,,Scattered Clouds,340,2013-06-12 21:35:00
4:55 PM,87.8,64.4,46,29.83,10.0,NW,12.7,18.4,N/A,,Scattered Clouds,320,2013-06-12 21:55:00
5:15 PM,86.0,64.4,48,29.84,10.0,NNW,13.8,19.6,N/A,,Clear,330,2013-06-12 22:15:00
5:35 PM,84.2,64.4,51,29.84,10.0,NNW,16.1,20.7,N/A,,Clear,330,2013-06-12 22:35:00
5:55 PM,84.2,62.6,48,29.85,10.0,NNW,13.8,21.9,N/A,,Clear,330,2013-06-12 22:55:00
6:15 PM,84.2,60.8,45,29.85,10.0,NNW,16.1,23.0,N/A,,Clear,330,2013-06-12 23:15:00
6:35 PM,84.2,60.8,45,29.85,10.0,NNW,13.8,19.6,N/A,,Clear,340,2013-06-12 23:35:00
6:55 PM,82.4,57.2,42,29.85,10.0,NW,15.0,23.0,N/A,,Clear,310,2013-06-12 23:55:00
7:15 PM,82.4,57.2,42,29.87,10.0,NNW,18.4,24.2,N/A,,Clear,330,2013-06-13 00:15:00
7:35 PM,80.6,55.4,42,29.88,10.0,NW,15.0,20.7,N/A,,Clear,320,2013-06-13 00:35:00
7:55 PM,80.6,55.4,42,29.89,10.0,NNW,19.6,26.5,N/A,,Clear,330,2013-06-13 00:55:00
8:15 PM,78.8,57.2,47,29.91,10.0,NNW,17.3,23.0,N/A,,Clear,340,2013-06-13 01:15:00
8:35 PM,73.4,55.4,53,29.93,10.0,North,23.0,29.9,N/A,,Clear,350,2013-06-13 01:35:00
8:55 PM,71.6,55.4,57,29.94,10.0,North,15.0,23.0,N/A,,Clear,350,2013-06-13 01:55:00
9:15 PM,71.6,53.6,53,29.95,10.0,NNW,13.8,18.4,N/A,,Clear,340,2013-06-13 02:15:00
9:35 PM,71.6,53.6,53,29.96,10.0,NNW,15.0,24.2,N/A,,Scattered Clouds,340,2013-06-13 02:35:00
9:55 PM,69.8,55.4,60,29.96,10.0,NNW,15.0,19.6,N/A,,Scattered Clouds,340,2013-06-13 02:55:00
10:15 PM,68.0,55.4,64,29.98,10.0,NNW,13.8,20.7,N/A,,Scattered Clouds,340,2013-06-13 03:15:00
10:35 PM,68.0,55.4,64,29.99,10.0,NNW,11.5,-,N/A,,Scattered Clouds,340,2013-06-13 03:35:00
10:55 PM,66.2,53.6,64,30.01,10.0,NNW,16.1,25.3,N/A,,Scattered Clouds,330,2013-06-13 03:55:00
11:15 PM,66.2,53.6,64,30.02,10.0,North,12.7,21.9,N/A,,Scattered Clouds,350,2013-06-13 04:15:00
11:35 PM,64.4,53.6,68,30.03,10.0,North,10.4,-,N/A,,Scattered Clouds,350,2013-06-13 04:35:00
11:55 PM,64.4,53.6,68,30.03,10.0,NNW,10.4,-,N/A,,Scattered Clouds,340,2013-06-13 04:55:00